| time (UTC) | temp C | wind direction | speed KPH | gust KPH | rain 1hr cm | rain 24hr cm | rain mn cm | humidity % | barometer mb |
| 20260509234535 | 14 | 128 | 0.0 | 4.8 | 0.00 | 0.00 | 0.00 | 86 | 1010.8 |
| 20260509233035 | 13 | 0 | 0.0 | 3.2 | 0.00 | 0.00 | 0.00 | 90 | 1010.6 |
| 20260509231536 | 12 | 0 | 0.0 | 0.0 | 0.00 | 0.00 | 0.00 | 91 | 1010.4 |
| 20260509230036 | 12 | 0 | 0.0 | 0.0 | 0.00 | 0.00 | 0.00 | 90 | 1010.6 |
| 20260509224536 | 13 | 0 | 0.0 | 0.0 | 0.00 | 0.00 | 0.00 | 88 | 1010.6 |
| 20260509223043 | 13 | 0 | 0.0 | 0.0 | 0.00 | 0.00 | 0.00 | 84 | 1010.6 |
| 20260509221538 | 15 | 0 | 0.0 | 0.0 | 0.00 | 0.00 | 0.00 | 81 | 1010.6 |
| 20260509220039 | 15 | 0 | 0.0 | 1.6 | 0.00 | 0.00 | 0.00 | 78 | 1010.6 |
| 20260509214535 | 15 | 0 | 0.0 | 1.6 | 0.00 | 0.13 | 0.00 | 79 | 1010.5 |
| 20260509213032 | 16 | 122 | 0.0 | 1.6 | 0.00 | 0.13 | 0.00 | 77 | 1010.7 |
| 20260509211536 | 16 | 124 | 0.0 | 1.6 | 0.00 | 0.13 | 0.00 | 78 | 1010.5 |
| 20260509210048 | 17 | 0 | 0.0 | 3.2 | 0.00 | 0.13 | 0.00 | 73 | 1010.4 |
| 20260509204535 | 17 | 86 | 0.0 | 1.6 | 0.00 | 0.15 | 0.00 | 73 | 1010.3 |
| 20260509203036 | 17 | 0 | 0.0 | 1.6 | 0.00 | 0.15 | 0.00 | 74 | 1010.5 |
| 20260509201534 | 17 | 0 | 0.0 | 1.6 | 0.00 | 0.15 | 0.00 | 76 | 1010.5 |
| 20260509200045 | 17 | 0 | 0.0 | 0.0 | 0.00 | 0.15 | 0.00 | 78 | 1010.5 |
| 20260509194536 | 17 | 0 | 0.0 | 0.0 | 0.00 | 0.15 | 0.00 | 78 | 1010.4 |
| 20260509193035 | 18 | 0 | 0.0 | 0.0 | 0.00 | 0.15 | 0.00 | 74 | 1010.2 |
| 20260509191535 | 18 | 0 | 0.0 | 1.6 | 0.00 | 0.15 | 0.00 | 72 | 1010.3 |
| 20260509190040 | 19 | 0 | 0.0 | 0.0 | 0.00 | 0.15 | 0.00 | 72 | 1010.3 |
| 20260509184536 | 20 | 0 | 0.0 | 1.6 | 0.00 | 0.15 | 0.00 | 67 | 1010.4 |
| 20260509183035 | 21 | 0 | 0.0 | 0.0 | 0.00 | 0.15 | 0.00 | 64 | 1010.3 |
| 20260509181535 | 22 | 0 | 0.0 | 1.6 | 0.00 | 0.15 | 0.00 | 60 | 1010.3 |
| 20260509180037 | 23 | 70 | 0.0 | 1.6 | 0.00 | 0.15 | 0.00 | 56 | 1010.1 |
| 20260509174536 | 23 | 0 | 0.0 | 3.2 | 0.00 | 0.15 | 0.00 | 55 | 1010.1 |
| 20260509173100 | 23 | 108 | 0.0 | 6.4 | 0.00 | 0.15 | 0.00 | 51 | 1010.0 |
| 20260509171540 | 24 | 102 | 1.6 | 6.4 | 0.00 | 0.15 | 0.00 | 48 | 1010.2 |
| 20260509170040 | 24 | 122 | 3.2 | 9.7 | 0.00 | 0.15 | 0.00 | 47 | 1010.2 |
| 20260509164535 | 24 | 98 | 3.2 | 12.9 | 0.00 | 0.15 | 0.00 | 48 | 1010.4 |
| 20260509163034 | 25 | 135 | 0.0 | 6.4 | 0.00 | 0.15 | 0.00 | 45 | 1010.4 |
| 20260509161540 | 24 | 132 | 1.6 | 9.7 | 0.00 | 0.15 | 0.00 | 47 | 1010.6 |
| 20260509160036 | 24 | 158 | 1.6 | 8.0 | 0.00 | 0.15 | 0.00 | 45 | 1010.7 |
| 20260509154536 | 24 | 92 | 4.8 | 12.9 | 0.00 | 0.15 | 0.00 | 45 | 1010.8 |
| 20260509153036 | 25 | 93 | 1.6 | 9.7 | 0.00 | 0.15 | 0.00 | 45 | 1010.9 |
| 20260509151540 | 24 | 0 | 0.0 | 6.4 | 0.00 | 0.15 | 0.00 | 47 | 1011.1 |
| 20260509150032 | 24 | 91 | 4.8 | 9.7 | 0.00 | 0.15 | 0.00 | 49 | 1011.3 |
| 20260509144535 | 24 | 155 | 0.0 | 11.3 | 0.00 | 0.15 | 0.00 | 52 | 1011.3 |
| 20260509143037 | 23 | 103 | 1.6 | 8.0 | 0.00 | 0.15 | 0.00 | 49 | 1011.4 |
| 20260509141535 | 23 | 0 | 0.0 | 12.9 | 0.00 | 0.15 | 0.00 | 49 | 1011.5 |
| 20260509140035 | 23 | 243 | 0.0 | 9.7 | 0.00 | 0.15 | 0.00 | 51 | 1011.8 |
| 20260509134540 | 23 | 101 | 3.2 | 12.9 | 0.00 | 0.15 | 0.00 | 50 | 1011.9 |
| 20260509133036 | 23 | 102 | 3.2 | 16.1 | 0.00 | 0.15 | 0.00 | 49 | 1012.1 |
| 20260509131542 | 23 | 99 | 3.2 | 19.3 | 0.00 | 0.15 | 0.00 | 54 | 1012.1 |
| 20260509130055 | 23 | 115 | 1.6 | 11.3 | 0.00 | 0.15 | 0.00 | 54 | 1012.1 |
| 20260509124537 | 23 | 122 | 1.6 | 9.7 | 0.00 | 0.15 | 0.00 | 51 | 1012.1 |
| 20260509123107 | 22 | 143 | 3.2 | 9.7 | 0.00 | 0.15 | 0.00 | 53 | 1012.1 |
| 20260509121540 | 22 | 75 | 3.2 | 11.3 | 0.00 | 0.15 | 0.00 | 55 | 1012.1 |
| 20260509120046 | 22 | 84 | 3.2 | 12.9 | 0.00 | 0.15 | 0.00 | 57 | 1012.4 |
| 20260509114541 | 22 | 107 | 3.2 | 11.3 | 0.00 | 0.15 | 0.00 | 54 | 1012.8 |
| 20260509113035 | 22 | 201 | 3.2 | 11.3 | 0.00 | 0.15 | 0.00 | 53 | 1012.9 |
| 20260509111534 | 22 | 0 | 3.2 | 9.7 | 0.00 | 0.15 | 0.00 | 58 | 1013.0 |
| 20260509110037 | 22 | 80 | 1.6 | 8.0 | 0.00 | 0.15 | 0.00 | 54 | 1013.0 |
| 20260509104536 | 21 | 85 | 1.6 | 8.0 | 0.00 | 0.15 | 0.00 | 55 | 1012.9 |
| 20260509103036 | 21 | 198 | 1.6 | 11.3 | 0.00 | 0.15 | 0.00 | 56 | 1013.0 |
| 20260509101551 | 21 | 153 | 3.2 | 8.0 | 0.00 | 0.15 | 0.00 | 56 | 1013.2 |
| 20260509100035 | 21 | 216 | 1.6 | 6.4 | 0.00 | 0.15 | 0.00 | 59 | 1013.3 |
| 20260509094536 | 20 | 230 | 1.6 | 6.4 | 0.00 | 0.15 | 0.00 | 62 | 1013.5 |
| 20260509093037 | 20 | 142 | 1.6 | 8.0 | 0.00 | 0.15 | 0.00 | 64 | 1013.5 |
| 20260509091542 | 20 | 129 | 0.0 | 6.4 | 0.00 | 0.15 | 0.00 | 64 | 1013.7 |
| 20260509090038 | 19 | 169 | 0.0 | 4.8 | 0.00 | 0.15 | 0.00 | 68 | 1013.7 |
| 20260509084535 | 18 | 126 | 1.6 | 4.8 | 0.00 | 0.15 | 0.00 | 67 | 1013.9 |
| 20260509083035 | 18 | 152 | 1.6 | 8.0 | 0.00 | 0.15 | 0.00 | 74 | 1013.9 |
| 20260509081536 | 18 | 93 | 1.6 | 8.0 | 0.00 | 0.15 | 0.00 | 76 | 1014.0 |
| 20260509080038 | 17 | 179 | 0.0 | 3.2 | 0.00 | 0.15 | 0.00 | 78 | 1014.1 |
| 20260509074537 | 17 | 0 | 0.0 | 6.4 | 0.00 | 0.15 | 0.00 | 81 | 1014.1 |
| 20260509073034 | 16 | 145 | 3.2 | 6.4 | 0.00 | 0.15 | 0.00 | 81 | 1014.1 |
| 20260509071530 | 16 | 185 | 1.6 | 6.4 | 0.00 | 0.15 | 0.00 | 84 | 1014.0 |
| 20260509070037 | 15 | 102 | 0.0 | 4.8 | 0.00 | 0.15 | 0.00 | 86 | 1013.9 |
| 20260509064546 | 15 | 0 | 1.6 | 4.8 | 0.00 | 0.15 | 0.00 | 88 | 1014.0 |
| 20260509063037 | 13 | 120 | 1.6 | 6.4 | 0.00 | 0.15 | 0.00 | 90 | 1014.2 |
| 20260509061543 | 13 | 107 | 0.0 | 3.2 | 0.00 | 0.15 | 0.00 | 93 | 1014.3 |
| 20260509060031 | 12 | 68 | 0.0 | 3.2 | 0.00 | 0.15 | 0.00 | 94 | 1014.1 |
| 20260509054539 | 12 | 0 | 0.0 | 1.6 | 0.00 | 0.15 | 0.00 | 96 | 1013.9 |
| 20260509053037 | 11 | 0 | 0.0 | 1.6 | 0.00 | 0.15 | 0.00 | 97 | 1013.7 |
| 20260509051535 | 10 | 0 | 0.0 | 0.0 | 0.00 | 0.15 | 0.00 | 98 | 1013.7 |
| 20260509050036 | 8 | 0 | 0.0 | 0.0 | 0.00 | 0.13 | 0.00 | 98 | 1013.7 |
| 20260509044533 | 8 | 0 | 0.0 | 0.0 | 0.00 | 0.13 | 0.00 | 97 | 1013.7 |
| 20260509043035 | 8 | 0 | 0.0 | 1.6 | 0.00 | 0.13 | 0.00 | 98 | 1013.5 |
| 20260509041535 | 8 | 0 | 0.0 | 0.0 | 0.00 | 0.13 | 0.00 | 97 | 1013.4 |
| 20260509040042 | 8 | 0 | 0.0 | 1.6 | 0.00 | 0.13 | 0.00 | 97 | 1013.2 |
| 20260509034539 | 8 | 0 | 0.0 | 0.0 | 0.00 | 0.13 | 0.00 | 97 | 1013.3 |
| 20260509033034 | 9 | 0 | 0.0 | 0.0 | 0.00 | 0.13 | 0.00 | 97 | 1013.3 |
| 20260509031552 | 9 | 0 | 0.0 | 0.0 | 0.00 | 0.13 | 0.00 | 96 | 1013.4 |
| 20260509030036 | 10 | 0 | 0.0 | 0.0 | 0.00 | 0.13 | 0.00 | 97 | 1013.4 |
| 20260509024535 | 10 | 0 | 0.0 | 1.6 | 0.00 | 0.13 | 0.00 | 97 | 1013.4 |
| 20260509023036 | 11 | 0 | 0.0 | 1.6 | 0.00 | 0.13 | 0.00 | 97 | 1013.4 |
| 20260509021538 | 10 | 0 | 0.0 | 1.6 | 0.00 | 0.13 | 0.00 | 96 | 1013.5 |
| 20260509020038 | 11 | 0 | 0.0 | 0.0 | 0.00 | 0.13 | 0.00 | 96 | 1013.6 |
| 20260509014541 | 11 | 0 | 0.0 | 0.0 | 0.00 | 0.13 | 0.00 | 95 | 1013.5 |
| 20260509013036 | 11 | 0 | 0.0 | 0.0 | 0.00 | 0.13 | 0.00 | 95 | 1013.6 |
| 20260509011535 | 11 | 0 | 0.0 | 1.6 | 0.00 | 0.13 | 0.00 | 95 | 1013.8 |
| 20260509010043 | 12 | 0 | 0.0 | 1.6 | 0.00 | 0.13 | 0.00 | 95 | 1013.9 |
| 20260509004536 | 12 | 0 | 0.0 | 0.0 | 0.00 | 0.13 | 0.00 | 94 | 1013.8 |
| 20260509003039 | 12 | 0 | 0.0 | 0.0 | 0.00 | 0.13 | 0.00 | 94 | 1013.9 |
| 20260509001535 | 12 | 0 | 0.0 | 0.0 | 0.00 | 0.13 | 0.00 | 94 | 1013.9 |
| 20260509000034 | 12 | 0 | 0.0 | 0.0 | 0.00 | 0.13 | 0.00 | 93 | 1014.1 |